Hourly Data Report for March 05, 2011

HALIFAX STANFIELD INT'L A
NOVA SCOTIA

44°52'48.060" N
63°30'00.050" W
145.40 m
8202250
71395
YHZ

Download Data

Hourly Data (March 2011)
Hourly Data Report for March 5, 2011
TIME
LST
Temp Definition
°C
Dew Point Definition
°C
Rel Hum Definition
%
Precip. Amount Definition
mm

Wind Dir Definition
10's deg

Wind Spd Definition
km/h
Visibility Definition
km
Stn Press Definition
kPa
Hmdx Definition


Wind Chill Definition


Weather Definition


00:00 -10.3 -19.5 47   14 13 24.1 102.35   -17 Clear
01:00 -11.7 -18.4 58   16 11 24.1 102.36   -18 Mainly Clear
02:00 -10.3 -16.3 61   15 15 24.1 102.31   -17 Mostly Cloudy
03:00 -10.3 -14.1 74   16 13 24.1 102.26   -17 Mostly Cloudy
04:00 -10.4 -12.4 85   17 15 24.1 102.24   -17 Mainly Clear
05:00 -10.0 -11.9 86   17 13 24.1 102.26   -16 Mainly Clear
06:00 -9.6 -11.6 85   16 15 24.1 102.24   -16 Mainly Clear
07:00 -8.5 -10.7 84   16 17 24.1 102.20   -15 Mostly Cloudy
08:00 -6.7 -10.2 76   16 13 24.1 102.19   -12 Mostly Cloudy
09:00 -3.4 -8.4 68   18 28 24.1 102.18   -11 Mostly Cloudy
10:00 -1.7 -7.8 63   18 28 24.1 102.19   -8 Mostly Cloudy
11:00 0.6 -7.8 53   19 32 24.1 102.12     Mostly Cloudy
12:00 1.1 -6.4 57   18 30 24.1 102.02     Mainly Clear
13:00 1.7 -5.9 57   18 35 24.1 101.97     Mainly Clear
14:00 2.5 -5.6 55   18 37 24.1 101.89     Mainly Clear
15:00 2.1 -4.4 62   18 39 24.1 101.83     Mainly Clear
16:00 2.0 -4.9 60   18 32 24.1 101.79     Mostly Cloudy
17:00 0.9 -4.6 67   17 35 24.1 101.73     Mostly Cloudy
18:00 0.5 -3.3 76   18 33 24.1 101.71     Cloudy
19:00 0.5 -1.8 85   17 32 24.1 101.67     Cloudy
20:00 0.9 -1.1 86   18 30 24.1 101.63     Cloudy
21:00 0.9 -1.3 85   18 43 24.1 101.53     Mostly Cloudy
22:00 0.9 -1.4 85   18 33 24.1 101.51     Mostly Cloudy
23:00 1.4 -0.9 85   18 30 24.1 101.45     Cloudy

Notes on Data Quality.

Legend

  • E = Estimated
  • M = Missing
  • NA = Not Available*
  • [empty] = Indicates an unobserved value
Date modified: